Terminal Aerodrome Forecast
Issued by NWS Pocatello, ID

Home | Current Version | Previous Version | Text Only | Print | Product List | Glossary On
Versions: 1 2 3 4 5 6 7 8 9 10 11 12 13 14
099
FTUS45 KPIH 061120
TAFIDA
TAF
KIDA 061120Z 0612/0712 01005KT P6SM VCSH SCT060 BKN110
     FM062000 02009G18KT P6SM -TSRA SCT050CB BKN070 BKN110
     FM070300 01007KT P6SM -SHRA VCTS SCT050CB SCT070 BKN110=

USA.gov is the U.S. government's official web portal to all federal, state and local government web resources and services.